Regional Weather Roundup
Issued by NWS

Home | Current Version | Previous Version | Graphics & Text | Print | Product List | Glossary On
Versions: 1 2 3 4 5 6 7 8 9 10 11 12 13 14 15 16 17 18 19 20 21 22 23 24 25 26 27
000
ASUS45 KBOU 161506
RWRCO

WEATHER ROUNDUP FOR COLORADO
NATIONAL WEATHER SERVICE DENVER/BOULDER CO
900 AM MDT WED APR 16 2014

NOTE: "FAIR" INDICATES FEW OR NO CLOUDS BELOW 12000 FEET WITH NO
SIGNIFICANT WEATHER AND/OR OBSTRUCTIONS TO VISIBILITY.

COZ001>005-013-030-031-161600-
...NORTHWEST COLORADO...

CITY           SKY/WX    TMP DP  RH WIND       PRES   REMARKS
CRAIG            N/A     41  19  41 W12       29.99R
HAYDEN         MOSUNNY   37  18  44 NW6       30.01S
MEEKER         MOSUNNY   41  17  38 E7        30.00R
MOUNT WERNER   NOT AVBL
STEAMBOAT SPGS MOSUNNY   36  18  48 SW3       29.99R
WALDEN         MOSUNNY   32  14  47 NW9       29.95S WCI  24
$$

COZ006>008-011-161600-
...WEST CENTRAL VALLEYS...

CITY           SKY/WX    TMP DP  RH WIND       PRES   REMARKS
GRAND JUNCTION PTSUNNY   49  17  28 NE14      29.93R
MONTROSE       CLOUDY    47  21  35 NE3       29.96R
EAGLE          MOSUNNY   41  18  38 CALM      30.00R
RIFLE          CLOUDY    44  17  33 NW8       29.98R
DELTA          CLOUDY    47  28  47 E6        29.93S
NUCLA            N/A     43  21  42 CALM      29.97R
$$

COZ017>023-064>068-161600-
...SOUTHWEST COLORADO...

CITY           SKY/WX    TMP DP  RH WIND       PRES   REMARKS
DURANGO        MOSUNNY   38   8  29 E5        29.93R
CORTEZ         SUNNY     43  20  39 E5        29.92S
PAGOSA SPRINGS MOSUNNY   44   5  19 CALM      29.94F
TELLURIDE      CLOUDY    39  16  38 CALM      29.99S
WOLF CREEK PAS SUNNY     32   5  32 SW6       30.04S WCI  26
$$

COZ009-010-012-014-032>034-037-058>063-161600-
...CENTRAL COLORADO...

CITY           SKY/WX    TMP DP  RH WIND       PRES   REMARKS
ASPEN          CLOUDY    40  16  37 VRB6      29.95S
BUENA VISTA    PTSUNNY   45  16  31 NW16G25   29.88S
COPPER MTN     CLOUDY    21  16  79 W13G20    29.99R HAZE    WCI   9
BERTHOUD PASS  HAZE      10   1  67 NW17G23   29.97R VSB 1/4 WCI  -7
COTTONWOOD PAS PTSUNNY   41   5  22 W16G30    29.91F
GUNNISON       PTSUNNY   41  19  42 SW5       29.97R
KREMMLING      PTSUNNY   36  18  48 NW3       29.99S
LEADVILLE      CLOUDY    29  15  56 NE9       29.95S WCI  20
MONARCH PASS   CLOUDY    27  10  50 W26G37    30.10S WCI  11
SALIDA         PTSUNNY   50  10  19 W13G25    29.96R
SUNLIGHT       CLOUDY    27  14  59 CALM      30.02S
WILKERSON PASS MOSUNNY   28  14  54 W14G28    29.95F WCI  17
$$

COZ069>075-161600-
...SAN LUIS VALLEY/SANGRE DE CRISTO MOUNTAINS...

CITY           SKY/WX    TMP DP  RH WIND       PRES   REMARKS
ALAMOSA        SUNNY     45  14  28 CALM      29.92R
LA VETA PASS   SUNNY     39   9  28 W5        29.98R
SAGUACHE       MOSUNNY   48  14  25 NW20G28   29.91F
$$

COZ035-036-038>040-161600-
...NORTHERN COLORADO FRONT RANGE...

CITY           SKY/WX    TMP DP  RH WIND       PRES   REMARKS
DENVER INTL AP PTSUNNY   45  26  47 N14       29.88R
DMNS CITY PARK   N/A     49  16  26 N9G17     29.87R
AURORA         MOSUNNY   43  25  49 N7        29.89R
FRONT RANGE AP PTSUNNY   45  28  53 N10       29.89R
ERIE MUNI ARPT MOSUNNY   51  15  24 N7        29.87R
BOULDER MUN AP MOSUNNY   50  14  23 NW14G25   29.87R
CENTENNIAL     PTSUNNY   44  23  43 NE9       29.87R
BROOMFIELD     PTSUNNY   48  16  27 W18G33    29.87R
FORT COLLINS   MOSUNNY   45  27  49 N24       29.91R
LONGMONT       MOSUNNY   51  25  37 NE13      29.89R
$$

COZ041-046-047-076>085-087-088-161600-
...PIKES PEAK/PALMER DIVIDE AND SOUTHERN FOOTHILLS...

CITY           SKY/WX    TMP DP  RH WIND       PRES   REMARKS
COLO. SPRINGS  MOSUNNY   50  19  29 N23       29.85R
A. F. ACADEMY  SUNNY     43  20  39 N12       29.87R
ELLICOTT       NOT AVBL
FALCON         SUNNY     43  15  32 N20G26    29.88R
FORT CARSON    SUNNY     49  25  39 N17       29.83S
LIMON          MOSUNNY   43  28  55 N21       29.88R
MONUMENT HILL  SUNNY     41  18  38 N13G22    29.87R
TRINIDAD       SUNNY     51  20  29 NE17G24   29.86R
$$

COZ042>045-048>051-090-091-161600-
...NORTHEAST COLORADO...

CITY           SKY/WX    TMP DP  RH WIND       PRES   REMARKS
GREELEY ARPT   MOSUNNY   46  25  42 NW26G32   29.89R
AKRON          MOSUNNY   44  31  60 NW26G36   29.85R
BURLINGTON     SUNNY     48  30  49 NW32G41   29.82R
WRAY           SUNNY     49  34  56 NW24G33   29.83R
STERLING       SUNNY     50  34  53 NW33      29.84R
HOLYOKE        SUNNY     50  34  53 NW29G41   29.81R
FORT MORGAN    SUNNY     47  27  45 NW31G37   29.88R
$$

COZ086-089-092>099-161600-
...SOUTHEAST COLORADO...

CITY           SKY/WX    TMP DP  RH WIND       PRES   REMARKS
PUEBLO         SUNNY     53  26  35 NE9       29.83R
LA JUNTA       MOSUNNY   54  27  35 N21       29.83S
LAMAR          MOSUNNY   54  27  35 N21G28    29.81R
SPRINGFIELD      N/A     54  27  35 N22G30    29.83R
$$



USA.gov is the U.S. government's official web portal to all federal, state and local government web resources and services.